Weather History for Truckee-Tahoe, CA

Change the Weather History Date:

Tuesday, January 22, 2013

  Actual Average Record
Temperature  
Mean Temperature 26 °F -  
Max Temperature 48 °F 40 °F 57 °F (1950)
Min Temperature 5 °F 15 °F -12 °F (1962)
Degree Days  
Heating Degree Days 38    
Moisture  
Dew Point 13 °F    
Average Humidity 74    
Maximum Humidity 93    
Minimum Humidity 24    
Precipitation  
Precipitation 0.00 in - - ()
Sea Level Pressure  
Sea Level Pressure 30.23 in    
Wind  
Wind Speed 1 mph (SE)    
Max Wind Speed 6 mph    
Max Gust Speed -    
Visibility 9 miles    
Events Fog    
Averages and records for this station are not official NWS values.
T = Trace of Precipitation, MM = Missing Value Source: NWS Daily Summary

Daily Weather History Graph

Daily Weather History Graph

Search for Another Location

Airport:

Trip Planner

Search our weather history database for the weather conditions in past years. The results will help you decide how hot, cold, wet, or windy it might be!

Date:

Astronomy

Jan. 22, 2013 Rise Set
Actual Time 7:15 AM PST 5:09 PM PST
Civil Twilight 6:46 AM PST 5:38 PM PST
Nautical Twilight 6:13 AM PST 6:11 PM PST
Astronomical Twilight 5:41 AM PST 6:43 PM PST
Moon 1:36 PM PST (1/22) 3:40 AM PST (1/22)
Length of Visible Light 10h 52m
Length of Day
9h 54m
Waxing Gibbous, 83% of the Moon is Illuminated
Jan 22
Waxing Gibbous
Jan 26
Full
Feb 3
Last Quarter
Feb 9
New
Feb 17
First Quarter

Hourly Weather History & Observations

Time (PST) Temp. Windchill Dew Point Humidity Pressure Visibility Wind Dir Wind Speed Gust Speed Precip Events Conditions
12:15 AM 14.0 °F - 12.2 °F 93% 30.32 in 10.0 mi Calm Calm - N/A   Clear
12:35 AM 14.0 °F - 10.4 °F 86% 30.32 in 10.0 mi Calm Calm - N/A   Clear
12:55 AM 15.8 °F - 14.0 °F 93% 30.32 in 10.0 mi Calm Calm - N/A   Clear
1:15 AM 14.0 °F - 10.4 °F 86% 30.31 in 10.0 mi Calm Calm - N/A   Clear
1:35 AM 12.2 °F - 10.4 °F 92% 30.31 in 2.0 mi Calm Calm - N/A   Clear
1:55 AM 8.6 °F - 6.8 °F 92% 30.31 in 10.0 mi Calm Calm - N/A   Clear
2:15 AM 12.2 °F 6.1 °F 10.4 °F 92% 30.30 in 8.0 mi South 3.5 mph - N/A   Clear
2:35 AM 14.0 °F 8.2 °F 10.4 °F 86% 30.29 in 10.0 mi North 3.5 mph - N/A   Clear
2:55 AM 6.8 °F - 5.0 °F 92% 30.29 in 10.0 mi Calm Calm - N/A   Clear
3:15 AM 8.6 °F 2.0 °F 5.0 °F 85% 30.28 in 10.0 mi ESE 3.5 mph - N/A   Clear
3:35 AM 10.4 °F - 8.6 °F 92% 30.28 in 10.0 mi Calm Calm - N/A   Clear
3:55 AM 14.0 °F 8.2 °F 12.2 °F 93% 30.27 in 10.0 mi East 3.5 mph - N/A   Clear
4:15 AM 8.6 °F - 5.0 °F 85% 30.27 in 7.0 mi Calm Calm - N/A   Clear
4:35 AM 6.8 °F - 5.0 °F 92% 30.27 in 0.2 mi Calm Calm - N/A Fog Light Freezing Fog
4:55 AM 8.6 °F 2.0 °F 6.8 °F 92% 30.27 in 0.8 mi ESE 3.5 mph - N/A   Mist
5:15 AM 5.0 °F -2.1 °F 1.4 °F 85% 30.27 in 0.2 mi WSW 3.5 mph - N/A Fog Light Freezing Fog
5:35 AM 10.4 °F - 6.8 °F 85% 30.27 in 9.0 mi Calm Calm - N/A   Clear
6:55 AM 6.8 °F - 3.2 °F 85% 30.27 in 10.0 mi Calm Calm - N/A Fog Shallow Fog
7:45 AM 8.6 °F - 6.8 °F 92% 30.26 in 10.0 mi Calm Calm - N/A Fog Shallow Fog
8:45 AM 10.4 °F - 8.6 °F 92% 30.27 in 10.0 mi Calm Calm - N/A Fog Shallow Fog
9:45 AM 14.0 °F - 10.4 °F 86% 30.27 in 10.0 mi Calm Calm - N/A   Mostly Cloudy
11:45 AM 23.0 °F - 19.4 °F 86% 30.25 in 10.0 mi Calm Calm - N/A   Mostly Cloudy
12:45 PM 32.0 °F - 15.8 °F 51% 30.21 in 10.0 mi Calm Calm - N/A   Mostly Cloudy
1:55 PM 37.4 °F - 19.4 °F 48% 30.18 in 10.0 mi Calm Calm - N/A   Scattered Clouds
2:55 PM 44.6 °F - 15.8 °F 31% 30.17 in 10.0 mi Calm Calm - N/A   Mostly Cloudy
3:45 PM 48.2 °F - 12.2 °F 24% 30.17 in 10.0 mi Calm Calm - N/A   Mostly Cloudy
4:45 PM 37.4 °F 33.8 °F 19.4 °F 48% 30.17 in 10.0 mi SE 4.6 mph - N/A   Mostly Cloudy
4:55 PM 35.6 °F 32.8 °F 19.4 °F 52% 30.18 in 10.0 mi South 3.5 mph - N/A   Clear
5:15 PM 35.6 °F 31.7 °F 17.6 °F 48% 30.18 in 10.0 mi SE 4.6 mph - N/A   Clear
5:35 PM 32.0 °F 28.7 °F 17.6 °F 55% 30.18 in 10.0 mi SSE 3.5 mph - N/A   Clear
5:55 PM 35.6 °F 30.7 °F 17.6 °F 48% 30.17 in 10.0 mi SSE 5.8 mph - N/A   Clear
6:15 PM 28.4 °F - 17.6 °F 64% 30.18 in 10.0 mi Calm Calm - N/A   Clear
6:35 PM 32.0 °F - 19.4 °F 60% 30.17 in 10.0 mi Calm Calm - N/A   Clear
6:55 PM 32.0 °F - 17.6 °F 55% 30.17 in 10.0 mi Calm Calm - N/A   Clear
7:15 PM 28.4 °F - 17.6 °F 64% 30.17 in 10.0 mi Calm Calm - N/A   Clear
7:35 PM 24.8 °F - 17.6 °F 74% 30.17 in 10.0 mi Calm Calm - N/A   Clear
7:55 PM 26.6 °F - 17.6 °F 69% 30.18 in 10.0 mi Calm Calm - N/A   Clear
8:15 PM 24.8 °F - 15.8 °F 69% 30.18 in 10.0 mi Calm Calm - N/A   Clear
8:35 PM 24.8 °F - 15.8 °F 69% 30.19 in 10.0 mi Calm Calm - N/A   Clear
8:55 PM 26.6 °F - 17.6 °F 69% 30.19 in 10.0 mi Calm Calm - N/A   Clear
9:15 PM 23.0 °F - 15.8 °F 74% 30.20 in 10.0 mi Calm Calm - N/A   Clear
9:35 PM 23.0 °F - 15.8 °F 74% 30.19 in 10.0 mi Calm Calm - N/A   Clear
9:55 PM 24.8 °F - 15.8 °F 69% 30.20 in 10.0 mi Calm Calm - N/A   Clear
10:15 PM 23.0 °F - 15.8 °F 74% 30.19 in 10.0 mi Calm Calm - N/A   Clear
10:35 PM 21.2 °F 16.4 °F 15.8 °F 80% 30.19 in 10.0 mi NNE 3.5 mph - N/A   Clear
10:55 PM 24.8 °F - 17.6 °F 74% 30.20 in 10.0 mi Calm Calm - N/A   Clear
11:15 PM 23.0 °F - 15.8 °F 74% 30.20 in 10.0 mi Calm Calm - N/A   Clear
11:35 PM 23.0 °F - 17.6 °F 80% 30.20 in 10.0 mi Calm Calm - N/A   Clear
11:55 PM 23.0 °F 18.4 °F 15.8 °F 74% 30.19 in 10.0 mi NNE 3.5 mph - N/A   Clear